Regional Weather Roundup
Issued by NWS Cleveland, OH

Home | Current Version | Previous Version | Text Only | Print | Product List | Glossary Off
Versions: 1 2 3 4 5 6 7 8 9 10 11 12 13 14 15 16 17 18 19 20 21 22 23 24 25 26 27 28 29 30 31 32 33 34 35 36 37 38 39 40 41 42 43 44 45 46 47 48 49 50

000
ASUS41 KCLE 211410
RWRCLE
OHIO REGIONAL WEATHER ROUNDUP
NATIONAL WEATHER SERVICE CLEVELAND, OH
1000 AM EDT TUE OCT 21 2014

NOTE: "FAIR" INDICATES FEW OR NO CLOUDS BELOW 12,000 FEET WITH NO
SIGNIFICANT WEATHER AND/OR OBSTRUCTIONS TO VISIBILITY.

OHZ001>008-015>018-024>027-034-035-043-044-211500-
   NORTHWEST OHIO

CITY           SKY/WX    TMP DP  RH WIND       PRES   REMARKS
DEFIANCE       CLOUDY    48  44  86 NW12      30.03R
FINDLAY        CLOUDY    49  45  86 NW8       29.98R
TOLEDO EXPRESS CLOUDY    48  43  82 N8        30.00R
TOLEDO EXEC    CLOUDY    49  44  83 NW10      30.00R
LIMA           CLOUDY    48  44  86 NW10      30.00R
$$

OHZ009>014-019>023-028>033-038-089-211500-
   NORTHEAST OHIO

CITY           SKY/WX    TMP DP  RH WIND       PRES   REMARKS
CLE-HOPKINS    LGT RAIN  50  47  89 NW13      29.94R
CLE-LAKEFRONT  CLOUDY    52  47  83 N21       29.91R
CUY CO. ARPT   CLOUDY    52  50  93 N12       29.91S
LORAIN-ELYRIA  LGT RAIN  49  47  93 N10       29.94R
ASHTABULA      LGT RAIN  50  47  89 NW7       29.89R
AKRON-CANTON   LGT RAIN  50  46  86 NW8       29.91R FOG
WOOSTER        CLOUDY    50  46  86 N9        29.93R
MANSFIELD      CLOUDY    47  46  97 NW10      29.94R
YOUNGSTOWN     LGT RAIN  50  49  96 NW8       29.88R FOG
$$

OHZ042-051>053-060>062-070>072-077>081-211500-
  SOUTHWEST OHIO

CITY           SKY/WX    TMP DP  RH WIND       PRES   REMARKS
CINC-COVINGTON CLOUDY    51  44  77 NW9       30.03R
CINC-LUNKEN    CLOUDY    52  44  74 NW7       30.03R
HAMILTON       CLOUDY    52  44  74 NW10      30.03R
DAYTON         CLOUDY    50  44  80 NW12      30.01R
WRIGHT-PAT AFB PTSUNNY   49  44  81 NW13      30.00R
DAYTON GENERAL CLOUDY    50  43  77 NW9       30.00R
WILMINGTON     MOSUNNY   50  42  74 NW14      29.99R
$$

OHZ036-037-039>041-045>050-054>059-063>069-073>076-082>088-211500-
  CENTRAL AND SOUTHEAST OHIO

CITY           SKY/WX    TMP DP  RH WIND       PRES   REMARKS
COLUMBUS       CLOUDY    49  45  86 NW12      29.95R
OSU AIRPORT    CLOUDY    49  45  86 NW13      29.96R
BOLTON FIELD   CLOUDY    48  46  93 NW8       29.97R
RICKENBACK AFB CLOUDY    49  45  86 NW9G16    29.96R
NEWARK         CLOUDY    50  46  86 N10       29.94R
MARION         CLOUDY    48  45  89 N10       29.97R
LANCASTER      CLOUDY    49  46  90 NW9       29.95R
ZANESVILLE     CLOUDY    50  48  93 NW6       29.91S FOG
NEW PHILLY     LGT RAIN  52  48  86 N6        29.91R
$$



USA.gov is the U.S. government's official web portal to all federal, state and local government web resources and services.